Regional Weather Roundup
Issued by NWS Midland/Odessa, TX

Skip options and go directly to product.
Home | Oldest Version | Previous Version | Current Version | All | Text Only | Save Text | Print | Product List | Glossary On

Skip product version selection by date and time.   
853
ASUS44 KMAF 060910
RWRMAF
MIDLAND AREA WEATHER ROUNDUP
NATIONAL WEATHER SERVICE MIDLAND TX
300 AM CST SAT FEB 06 2016

...IN SOUTHWEST TEXAS AND SOUTHEAST NEW MEXICO...

CITY           SKY/WX    TMP DP  RH WIND       PRES   REMARKS
ALPINE         CLOUDY    24  10  53 CALM      30.48F
ANDREWS        FAIR      28  17  64 NW6       30.42S WCI  22
ARTESIA        CLOUDY    27  12  54 W12       30.43S WCI  16
BIG SPRING     CLEAR     30  18  62 W6        30.43S WCI  24
CARLSBAD       CLEAR     27  13  55 SW7       30.42S WCI  19
DRYDEN           N/A     38  16  40 W9        30.42R WCI  31
FORT STOCKTON  CLEAR     31  19  61 W8        30.44F WCI  23
GUAD PASS      CLOUDY    32  11  41 S3        30.43R
HOBBS          CLEAR     23  16  74 W9        30.42R WCI  13
MARFA          CLOUDY    21   9  59 N8        30.43F WCI  11
MIDLAND AIRPK  CLEAR     32  20  62 NW7       30.42S WCI  26
MIDLAND INTL   CLEAR     30  19  63 NW8       30.41R WCI  22
ODESSA         CLEAR     29  18  63 NW8       30.41F WCI  21
PECOS          CLEAR     28  14  56 W8        30.45F WCI  20
PRESIDIO       FAIR      37  10  33 NE3       30.45S
SEMINOLE       CLEAR     25  17  72 NW6       30.42R WCI  18
SNYDER           N/A     34  20  56 NW10      30.36S WCI  26
WINK           CLEAR     24  15  68 N7        30.42F WCI  16
$$
...OTHER STATIONS IN TEXAS...

CITY           SKY/WX    TMP DP  RH WIND       PRES   REMARKS
ABILENE        CLEAR     39  22  50 NW15      30.30R WCI  31
AMARILLO       CLEAR     24  17  74 W12       30.36R WCI  13
AUSTIN         MOCLDY    51  40  65 SW12      30.30F
BROWNSVILLE    CLOUDY    57  52  83 N5        30.30R
CORPUS CHRISTI PTCLDY    53  46  77 CALM      30.32S
DALLAS FTW     PTCLDY    41  32  70 SE6       30.22S WCI  37
DEL RIO        CLEAR     41  28  60 NW6       30.41R WCI  37
EL PASO        CLEAR     32   5  32 S6        30.45R WCI  26
HOUSTON INT    PTCLDY    46  36  68 CALM      30.31F
LUBBOCK        CLEAR     24  17  74 NW13      30.36S WCI  12
SAN ANGELO     PTCLDY    35  19  52 W10       30.38R WCI  27
SAN ANTONIO    PTCLDY    44  39  82 W7        30.34S
WACO           CLEAR     42  36  79 SW10      30.26S WCI  36
WICHITA FALLS  NOT AVBL
$$
...OTHER LOCATIONS IN NEW MEXICO...

CITY           SKY/WX    TMP DP  RH WIND       PRES   REMARKS
ALAMAGORDO     CLOUDY    27   1  33 CALM      30.44F
ALBUQUERQUE    CLOUDY    28  12  51 N7        30.47S WCI  21
CANNON AFB     CLOUDY    22  15  72 NW8       30.37S WCI  13
CLOVIS         CLEAR     19  14  79 NW8       30.38S WCI   9
HOLLOMAN AFB   CLOUDY    18  -1  43 N5        30.43F WCI  11
ROSWELL        CLOUDY    25  12  58 CALM      30.41S
RUIDOSO          N/A     25   1  36 W9        30.39F WCI  15
SANTA FE       CLOUDY    20  11  68 W5        30.41R WCI  13
TRUTH OR CONSE CLEAR     30   3  31 NW5       30.44F WCI  25
TUCUMCARI      CLOUDY    18  12  77 W7        30.37S WCI   9
$$

USA.gov is the U.S. government's official web portal to all federal, state and local government web resources and services.